CAPE
0 0 0 0 0 0 0 0 0 0 0 0 0 0 0 0 496 1472 1580 1469 781 1292 1270 938 782 758 1072 1301 1150 736 437 185 18 9 84 298 56 76 454 715 677 334 404 863 655 392 219 80 4
0 0 0 0 0 0 0 0 0 0 0 0 0 0 0 16 1109 1560 1648 1087 1179 1634 1579 1124 832 869 1125 1310 1116 723 459 144 20 118 253 354 8 4 318 826 723 495 168 223 453 354 170 45 0
0 0 0 0 0 0 0 0 0 0 0 0 0 0 0 358 1563 1838 2278 1064 1527 1816 1566 1328 795 837 1083 1303 1147 741 418 201 142 266 313 270 12 2 242 607 743 532 299 83 68 140 44 0 0
0 0 0 0 0 0 0 0 26 1 0 0 0 0 0 0 264 2115 2148 1263 1739 1857 1436 1316 747 823 1134 1259 1031 773 570 340 244 352 329 163 15 0 198 581 680 501 243 168 182 101 8 0 0
0 0 0 0 0 0 0 0 0 0 0 0 0 0 0 120 226 1957 1387 1310 1708 1535 1407 1220 780 848 1061 1146 1014 828 763 508 417 401 234 62 0 63 285 272 284 438 220 326 271 68 0 3 47
0 0 0 0 0 0 0 0 0 0 0 0 0 0 0 470 274 2010 1279 1488 1575 1291 1605 1040 739 697 890 911 872 820 756 628 588 526 261 26 0 71 25 0 81 185 233 350 226 57 22 42 34
0 0 0 0 0 0 0 0 0 0 0 0 0 0 0 10 561 1899 1474 1492 1631 1377 1663 854 306 541 626 617 650 704 680 557 489 420 158 0 10 78 0 0 4 23 76 263 130 45 44 18 37
0 0 0 0 0 0 0 0 0 0 0 0 0 0 0 602 747 1476 1628 1540 1581 1457 1345 879 301 119 131 371 502 449 428 384 362 243 77 25 142 96 18 0 0 0 30 133 70 6 8 26 45
0 0 0 0 0 0 0 0 0 0 0 0 0 0 0 504 540 883 1917 1634 1537 1452 1272 772 450 119 1 0 262 185 214 243 222 163 103 61 0 68 137 0 5 0 36 51 24 14 23 12 15
0 0 0 0 0 0 0 0 0 0 0 0 0 0 0 0 384 627 1300 2014 1706 1555 1397 940 638 277 62 82 384 64 26 11 13 6 63 0 0 0 0 0 107 25 23 12 11 11 1 1 0
0 0 0 0 0 0 0 0 0 0 0 0 0 0 0 0 11 295 761 2084 1912 1696 1452 1215 1081 653 252 222 570 163 189 81 48 26 50 0 0 14 0 18 90 155 86 71 5 0 0 0 0
0 0 0 0 0 0 0 0 0 0 0 0 0 0 0 0 0 108 350 1599 2169 1985 1648 1444 1512 1008 737 430 660 279 408 314 278 262 196 48 72 119 41 0 73 29 45 58 19 6 0 0 0
0 0 0 0 0 0 0 0 0 0 0 0 0 0 0 0 0 0 201 579 2461 2336 2003 1822 2075 1547 1152 1207 853 583 642 626 685 710 769 326 540 410 318 80 30 13 4 23 12 14 24 8 6
0 0 0 0 0 0 0 0 0 0 0 0 0 0 0 0 0 0 157 637 1939 2670 2413 2200 2332 2482 1962 1556 1420 1252 1171 1016 991 940 997 1049 968 846 697 491 309 201 109 26 12 30 10 12 12
0 0 0 0 0 0 0 0 0 0 0 0 0 0 0 0 0 0 75 793 1546 2495 2672 2591 2550 2750 2614 2284 1979 1755 1447 1438 1260 1118 1165 1266 1272 1200 1082 870 636 387 241 217 224 151 77 100 69
0 0 0 0 0 0 0 0 0 0 0 0 0 0 0 0 0 0 0 1091 1272 2023 2829 2742 2666 2781 2863 2665 2555 2151 1841 1589 1538 1361 1209 1253 1450 1316 1542 994 721 541 458 330 340 264 166 98 145
0 0 0 0 0 0 0 0 0 0 0 0 0 0 0 0 0 0 0 1248 1720 2487 3157 3065 2980 2754 2869 2931 3105 2637 2280 2151 1712 1691 1302 1629 1344 1349 1409 1239 831 1030 733 651 578 599 623 825 917
0 0 0 0 0 0 0 0 0 0 0 0 0 0 0 0 0 0 163 1624 2968 3075 3154 3323 3184 3110 2623 2771 3006 2518 2495 2273 1980 2079 2084 2138 1765 1586 1444 1428 1452 1439 1208 831 674 842 1318 1285 763
0 0 0 0 0 0 0 0 0 0 0 0 0 0 0 0 0 0 303 1939 2912 3419 3486 2976 3113 3333 2708 2281 2643 2152 2034 2011 2047 2041 1753 1871 1876 1775 1755 1598 1468 1552 1356 970 959 1372 669 469 307
0 0 0 0 0 0 0 0 0 0 0 0 0 0 0 0 0 0 0 1687 1657 2523 2954 3342 3370 3192 2665 2350 2353 2274 2279 2212 1906 1842 1962 2008 1635 1697 1591 1767 1507 1379 1383 1069 846 565 349 408 187
0 0 0 0 0 0 0 0 0 0 0 0 0 0 0 0 0 0 0 0 342 1657 2611 3117 3652 3258 2301 2179 2522 2421 2362 1963 2003 1748 2040 1790 1616 1624 1668 1527 1495 1535 1357 777 486 662 869 504 659
0 0 0 4 4 0 0 0 0 0 0 0 0 0 0 0 0 0 0 0 142 760 1721 2474 3144 2658 2100 1981 2121 2121 1960 2077 1950 1812 1494 1620 1566 1517 1395 1490 1523 1542 1031 700 853 755 872 798 888
0 2 4 1 1 0 0 0 0 0 0 0 0 0 0 0 0 0 0 0 0 176 928 1924 2687 2523 2105 1871 1746 2178 2272 1815 1598 1383 1600 1835 1541 1458 1291 1271 1365 1239 993 804 718 1040 1139 1054 817
3 14 23 10 7 11 0 0 0 0 0 0 0 0 0 0 0 0 0 0 0 4 603 1825 2513 1801 1594 1580 1960 2499 2171 1637 1349 1368 1419 1392 1349 1325 1289 1226 1191 1315 1315 1204 1091 1145 1151 1309 1195
47 51 35 19 23 4 0 0 0 0 0 0 0 0 0 0 0 0 0 0 0 0 642 2463 1651 1342 1392 1680 1842 2217 1948 1765 1709 1566 1347 1274 1240 1118 1401 1242 1346 1262 1249 1309 1324 1466 1278 1211 1038
53 89 23 3 1 0 0 0 0 0 0 0 0 0 0 0 0 0 0 0 0 1207 1801 1583 1383 1263 1731 1736 1749 1854 1819 1802 1554 1459 1324 1207 1213 952 826 779 881 821 816 758 706 754 691 386 252
52 93 41 21 4 0 0 0 0 0 0 0 0 0 0 0 0 0 0 0 1335 1479 1199 1107 1167 1400 1129 1178 1199 1363 1346 972 822 760 541 369 283 164 159 140 164 134 128 116 133 113 79 88 79
42 53 34 13 16 14 4 0 2 3 0 0 0 75 82 5 0 10 382 1199 983 736 750 658 672 706 744 798 802 708 534 407 309 213 126 101 88 67 53 34 15 18 2 6 9 0 0 0 0
51 32 47 0 2 24 4 3 15 1 1 22 337 36 1 84 328 562 716 497 381 539 670 719 616 560 362 267 131 50 13 7 6 0 3 1 0 0 0 0 0 0 0 0 0 0 0 0 0
93 51 47 17 2 3 29 259 358 14 88 50 3 1 4 7 160 280 265 329 408 334 367 243 66 21 10 0 0 0 0 0 0 0 0 0 0 0 0 0 0 0 0 0 0 0 0 0 0
CIN
-0 -0 -0 -0 -0 -0 -0 -0 -0 -0 -0 -0 -0 -0 -0 -0 -2 -15 -19 -84 -142 -290 -399 -474 -462 -418 -321 -255 -247 -289 -335 -424 -531 -529 -442 -330 -466 -423 -200 -99 -106 -212 -174 -51 -69 -126 -185 -269 -385
-0 -0 -0 -0 -0 -0 -0 -0 -0 -0 -0 -0 -0 -0 -0 -3 -20 -42 -59 -125 -173 -303 -355 -393 -475 -412 -330 -266 -270 -290 -329 -421 -521 -421 -335 -284 -260 -363 -230 -89 -102 -145 -250 -204 -125 -148 -209 -282 -0
-0 -0 -0 -0 -0 -0 -0 -0 -0 -0 -0 -0 -0 -0 -10 -8 -40 -16 -70 -128 -169 -293 -339 -360 -484 -422 -339 -277 -264 -280 -324 -392 -405 -326 -287 -284 -454 -339 -252 -125 -90 -132 -182 -255 -265 -226 -284 -0 -0
-0 -0 -0 -0 -0 -0 -0 -0 -8 -7 -0 -0 -0 -0 -0 -0 -92 -47 -131 -146 -197 -272 -313 -408 -491 -427 -334 -284 -284 -279 -297 -337 -342 -272 -271 -308 -402 -0 -236 -106 -86 -134 -191 -206 -207 -237 -319 -0 -0
-0 -0 -0 -0 -0 -0 -0 -0 -0 -0 -0 -0 -0 -0 -0 -106 -133 -99 -174 -161 -198 -245 -267 -396 -469 -418 -339 -279 -273 -280 -260 -285 -277 -261 -305 -358 -0 -231 -195 -187 -179 -131 -197 -144 -165 -243 -0 -73 -259
-0 -0 -0 -0 -0 -0 -0 -0 -0 -0 -0 -0 -0 -0 -0 -30 -76 -76 -130 -127 -158 -213 -212 -379 -460 -425 -354 -313 -296 -269 -252 -255 -244 -240 -287 -346 -0 -287 -140 -0 -250 -207 -184 -130 -163 -236 -281 -270 -274
-0 -0 -0 -0 -0 -0 -0 -0 -0 -0 -0 -0 -0 -0 -0 -105 -33 -50 -91 -94 -101 -139 -177 -367 -507 -437 -401 -357 -321 -275 -257 -261 -255 -245 -313 -0 -165 -294 -0 -0 -64 -283 -228 -148 -182 -240 -264 -304 -287
-0 -0 -0 -0 -0 -0 -0 -0 -0 -0 -0 -0 -0 -0 -0 -9 -47 -37 -52 -50 -48 -81 -151 -283 -422 -514 -475 -372 -354 -334 -303 -294 -276 -288 -343 -384 -275 -284 -303 -0 -0 -0 -248 -188 -224 -313 -311 -286 -240
-0 -0 -0 -0 -0 -0 -0 -0 -0 -0 -0 -0 -0 -0 -0 -19 -57 -48 -20 -22 -21 -42 -103 -224 -321 -437 -29 -0 -394 -423 -361 -325 -314 -307 -317 -329 -0 -279 -213 -0 -35 -0 -257 -224 -254 -289 -283 -281 -306
-0 -0 -0 -0 -0 -0 -0 -0 -0 -0 -0 -0 -0 -0 -0 -0 -48 -52 -36 -10 -10 -27 -61 -139 -248 -317 -354 -356 -310 -413 -418 -173 -172 -171 -335 -0 -0 -0 -0 -0 -219 -318 -315 -327 -303 -289 -113 -80 -0
-0 -0 -0 -0 -0 -0 -0 -0 -0 -0 -0 -0 -0 -0 -0 -0 -20 -47 -30 -1 -3 -17 -25 -65 -174 -236 -243 -232 -236 -303 -272 -309 -339 -351 -319 -0 -0 -238 -0 -38 -151 -134 -197 -180 -310 -0 -0 -0 -0
-0 -0 -0 -0 -0 -0 -0 -0 -0 -0 -0 -0 -0 -0 -0 -0 -0 -51 -23 -2 -5 -2 -12 -32 -115 -175 -169 -164 -173 -222 -158 -168 -171 -168 -190 -262 -185 -109 -170 -0 -86 -152 -106 -113 -129 -166 -24 -0 -0
-0 -0 -0 -0 -0 -0 -0 -0 -0 -0 -0 -0 -0 -0 -0 -0 -0 -0 -18 -10 -2 -3 -8 -20 -54 -106 -131 -82 -125 -141 -95 -93 -69 -54 -41 -90 -23 -28 -27 -68 -63 -31 -104 -68 -83 -73 -56 -53 -84
-0 -0 -0 -0 -0 -0 -0 -0 -0 -0 -0 -0 -0 -0 -0 -0 -0 -0 -46 -4 -3 -2 -5 -26 -38 -50 -74 -74 -65 -69 -42 -33 -33 -24 -20 -9 -5 -6 -5 -11 -20 -16 -23 -27 -30 -38 -18 -41 -51
-0 -0 -0 -0 -0 -0 -0 -0 -0 -0 -0 -0 -0 -0 -0 -0 -0 -0 -15 -23 -2 -2 -4 -22 -42 -45 -42 -44 -43 -28 -20 -3 -13 -10 -12 -20 -8 -2 -1 -2 -3 -4 -6 -21 -32 -38 -54 -51 -40
-0 -0 -0 -0 -0 -0 -0 -0 -0 -0 -0 -0 -0 -0 -0 -0 -0 -0 -0 -12 -2 -1 -1 -20 -32 -45 -33 -20 -8 -8 -1 -6 -2 -3 -1 -16 -8 -1 -1 -0 -1 -2 -2 -9 -14 -14 -16 -19 -10
-0 -0 -0 -0 -0 -0 -0 -0 -0 -0 -0 -0 -0 -0 -0 -0 -0 -0 -0 -1 -3 -3 -2 -9 -14 -30 -43 -12 -2 -4 -1 -1 -4 -1 -4 -7 -17 -11 -1 -1 -1 -3 -2 -1 -1 -1 -2 -6 -7
-0 -0 -0 -0 -0 -0 -0 -0 -0 -0 -0 -0 -0 -0 -0 -0 -0 -0 -34 -1 -3 -3 -7 -1 -1 -3 -61 -29 -3 -24 -0 -9 -1 -9 -3 -9 -3 -2 -6 -1 -1 -1 -0 -0 -1 -5 -0 -0 -10
-0 -0 -0 -0 -0 -0 -0 -0 -0 -0 -0 -0 -0 -0 -0 -0 -0 -0 -9 -3 -2 -2 -6 -4 -3 -2 -60 -67 -27 -75 -52 -27 -21 -29 -23 -1 -0 -0 -1 -1 -1 -0 -1 -2 -2 -0 -12 -28 -40
-0 -0 -0 -0 -0 -0 -0 -0 -0 -0 -0 -0 -0 -0 -0 -0 -0 -0 -0 -3 -1 -1 -1 -5 -2 -17 -62 -66 -55 -46 -25 -22 -29 -22 -4 -1 -0 -0 -0 -0 -0 -0 -1 -1 -17 -17 -39 -29 -63
-0 -0 -0 -0 -0 -0 -0 -0 -0 -0 -0 -0 -0 -0 -0 -0 -0 -0 -0 -0 -79 -10 -4 -1 -3 -18 -68 -83 -27 -27 -7 -23 -11 -2 -2 -0 -0 -1 -1 -0 -0 -0 -0 -14 -44 -14 -0 -13 -18
-0 -0 -0 -6 -6 -0 -0 -0 -0 -0 -0 -0 -0 -0 -0 -0 -0 -0 -0 -0 -107 -79 -51 -5 -26 -33 -42 -88 -49 -37 -24 -2 -4 -3 -1 -2 -3 -0 -0 -0 -0 -0 -7 -30 -6 -29 -8 -5 -16
-0 -7 -5 -4 -7 -2 -0 -0 -0 -0 -0 -0 -0 -0 -0 -0 -0 -0 -0 -0 -0 -85 -59 -17 -28 -34 -59 -88 -67 -20 -1 -1 -2 -2 -8 -1 -0 -0 -5 -3 -1 -0 -10 -25 -17 -14 -0 -6 -10
-3 -6 -8 -7 -8 -8 -0 -0 -0 -0 -0 -0 -0 -0 -0 -0 -0 -0 -0 -0 -0 -57 -47 -5 -26 -102 -108 -94 -43 -3 -0 -1 -1 -3 -1 -4 -5 -1 -0 -1 -2 -1 -1 -2 -2 -2 -1 -0 -3
-7 -12 -7 -14 -7 -16 -0 -0 -0 -0 -0 -0 -0 -0 -0 -0 -0 -0 -0 -0 -0 -0 -17 -3 -98 -146 -118 -47 -42 -4 -21 -14 -1 -6 -1 -6 -7 -6 -0 -3 -1 -0 -4 -3 -0 -0 -1 -0 -0
-7 -6 -4 -4 -0 -0 -0 -0 -0 -0 -0 -0 -0 -0 -0 -0 -0 -0 -0 -0 -0 -22 -41 -38 -104 -126 -47 -52 -40 -39 -42 -10 -19 -16 -29 -18 -3 -28 -42 -34 -14 -9 -6 -6 -13 -8 -3 -10 -46
-13 -13 -4 -6 -6 -1 -0 -0 -0 -0 -0 -0 -0 -0 -0 -0 -0 -0 -0 -0 -65 -107 -82 -99 -92 -78 -118 -112 -113 -67 -55 -81 -95 -91 -94 -128 -139 -177 -152 -137 -113 -110 -91 -93 -83 -71 -66 -84 -85
-8 -7 -5 -37 -20 -9 -8 -2 -10 -3 -0 -0 -0 -18 -59 -8 -0 -36 -93 -86 -153 -173 -113 -112 -125 -142 -145 -127 -114 -112 -139 -151 -163 -170 -198 -230 -254 -260 -278 -256 -175 -195 -105 -167 -93 -0 -0 -0 -0
-10 -28 -12 -0 -19 -8 -11 -10 -7 -5 -1 -3 -40 -250 -84 -357 -281 -217 -176 -214 -198 -114 -83 -85 -104 -119 -156 -188 -247 -320 -129 -95 -100 -0 -98 -118 -0 -0 -0 -0 -0 -0 -0 -0 -0 -0 -0 -0 -0
-6 -14 -7 -6 -26 -56 -12 -9 -25 -7 -10 -226 -0 -0 -0 -335 -222 -197 -200 -136 -92 -105 -102 -128 -240 -266 -350 -21 -0 -0 -0 -0 -0 -0 -0 -0 -0 -0 -0 -0 -0 -0 -0 -0 -0 -0 -0 -0 -0
Wind_Speed
27 24 24 27 29 28 38 34 32 17 18 19 17 21 23 18 18 14 6 7 13 17 21 20 17 17 18 19 20 21 19 19 18 17 16 15 15 15 15 15 14 13 13 13 13 13 14 15 17
24 22 23 31 35 41 36 37 29 20 14 12 21 21 22 19 12 7 4 7 14 15 18 20 19 18 18 18 18 19 19 18 17 16 15 15 15 15 14 13 12 12 12 13 13 12 13 14 16
25 22 30 34 43 47 41 30 30 17 14 18 19 19 18 16 12 7 7 7 9 11 15 16 18 19 17 18 19 19 16 16 16 15 14 14 15 14 14 13 12 12 12 12 12 12 12 14 15
21 23 31 47 46 50 49 41 24 20 19 21 21 19 14 15 18 14 4 4 7 8 13 14 16 17 17 18 18 17 17 17 14 13 13 13 13 13 12 12 12 11 11 11 11 11 12 13 13
26 28 40 47 54 52 46 45 43 24 27 19 19 23 17 13 14 10 4 3 3 5 8 11 13 15 16 17 18 16 14 14 15 14 14 13 12 11 10 10 10 10 10 10 10 11 11 10 10
27 31 42 48 51 51 53 45 34 29 24 18 18 24 19 10 11 7 2 3 3 3 4 9 10 12 13 14 18 17 15 14 13 13 12 12 11 10 8 7 8 9 9 8 8 8 8 8 8
34 32 43 45 46 49 42 42 43 34 33 27 18 26 18 13 9 6 3 3 4 4 3 8 9 9 7 9 13 14 14 12 11 10 10 10 9 8 7 7 7 6 6 6 6 6 6 5 5
36 42 45 44 45 47 35 34 37 37 36 33 27 22 27 10 9 6 4 4 4 4 4 7 9 10 8 8 8 9 10 9 8 8 8 7 6 5 5 5 5 5 5 5 5 5 5 6 9
28 43 50 46 42 42 38 36 32 31 37 37 34 28 17 11 9 8 7 7 6 5 5 7 8 7 7 6 5 5 6 6 6 7 7 6 4 4 4 4 4 6 8 9 9 8 9 9 11
32 40 47 43 41 41 39 37 31 32 32 33 29 28 16 14 12 11 10 10 9 8 7 7 6 7 7 5 4 5 5 5 5 5 4 3 4 5 5 5 5 6 9 11 12 13 13 13 13
26 39 37 43 41 39 39 35 30 27 31 28 29 25 20 21 19 16 13 12 12 10 8 7 6 6 6 4 4 4 4 3 2 2 2 2 7 8 7 7 8 9 10 12 12 13 15 15 16
36 42 47 47 37 36 40 36 39 35 37 29 25 27 27 21 22 21 17 15 13 11 10 8 7 7 6 4 3 4 3 1 2 1 1 4 11 10 10 11 10 10 11 13 14 15 15 17 19
44 47 43 40 46 41 35 40 41 42 35 34 25 25 22 22 22 22 22 16 15 13 12 10 8 7 7 4 3 3 1 0 2 2 2 7 10 12 12 14 15 13 13 13 15 18 19 17 20
42 44 49 48 40 39 40 39 38 40 34 34 33 28 28 27 25 24 23 21 17 15 14 12 9 8 8 6 3 3 3 2 4 4 3 4 7 10 12 13 13 16 16 18 19 18 19 19 20
49 47 46 48 46 37 37 48 46 36 31 35 31 32 30 28 26 25 21 23 17 16 15 14 12 10 9 9 6 4 4 6 4 5 5 4 6 10 12 12 14 15 17 20 22 23 22 21 24
41 50 54 44 36 43 32 55 36 35 33 32 33 34 33 30 26 22 22 20 19 18 16 15 13 12 10 10 8 7 7 6 7 7 7 5 7 9 11 14 14 15 18 19 20 20 20 20 21
47 51 50 44 36 33 36 49 42 23 27 31 31 29 25 25 23 18 17 16 18 17 16 16 14 12 11 9 9 8 9 11 10 12 12 8 10 13 13 15 17 17 18 19 21 22 23 26 26
46 48 48 47 40 33 41 47 37 28 28 26 27 27 28 26 23 17 14 13 15 15 14 14 14 13 10 11 9 10 11 9 13 14 13 11 13 12 16 17 19 19 20 21 20 24 22 22 22
51 46 50 44 35 39 41 43 38 37 26 29 26 26 25 25 20 17 14 12 12 13 15 14 15 12 10 11 10 10 11 13 14 15 15 15 14 14 16 18 20 20 19 21 22 20 21 22 21
52 55 48 41 35 35 36 44 43 33 34 29 25 25 20 18 17 16 14 13 13 13 13 13 14 13 11 11 11 12 12 12 14 14 13 12 15 17 18 17 18 20 21 21 21 21 21 20 20
52 52 51 39 30 32 38 46 39 39 32 30 26 23 23 18 17 16 13 14 12 12 12 12 12 12 13 12 12 12 12 12 14 13 15 16 17 17 18 20 20 20 19 20 19 16 21 27 27
55 46 46 43 36 42 33 51 41 36 37 35 30 25 20 19 18 17 15 13 13 11 10 10 10 10 11 10 10 9 11 11 13 14 16 17 18 19 20 19 19 19 18 17 18 18 22 22 22
55 40 42 45 42 38 36 42 45 31 38 36 32 29 25 19 18 19 17 13 13 10 10 9 9 8 7 7 6 7 10 11 12 14 14 18 18 19 20 19 19 18 16 15 20 23 22 19 22
39 39 40 43 39 48 39 37 41 31 35 34 29 28 25 22 18 17 17 14 13 10 10 9 8 6 7 8 8 8 8 10 10 12 14 15 16 17 17 20 18 18 18 18 20 21 20 21 23
39 38 40 45 52 48 42 45 39 32 25 28 26 25 24 20 19 17 17 16 13 12 10 7 7 7 7 7 7 7 7 8 10 12 14 15 15 16 16 17 19 19 19 21 21 20 20 19 20
42 43 43 45 50 52 42 50 43 28 17 20 22 20 21 20 18 17 16 15 13 9 6 7 7 7 7 5 5 5 3 7 10 14 13 14 14 16 17 18 18 18 18 19 20 20 19 22 23
39 45 39 34 36 44 42 38 38 25 22 20 20 18 19 19 18 15 14 13 10 7 6 5 5 5 4 3 3 4 5 8 10 11 11 12 13 13 15 17 18 21 22 23 24 23 26 26 28
39 38 45 41 37 43 37 36 31 30 25 25 22 16 14 16 16 13 10 8 6 5 4 3 3 3 2 1 1 3 6 8 10 11 12 12 13 15 16 18 19 21 23 25 27 29 29 30 31
32 40 44 39 31 36 36 37 24 29 24 21 18 16 13 10 9 9 8 6 5 4 4 4 4 5 3 3 4 5 7 9 11 12 13 14 15 16 17 18 21 24 27 29 30 32 33 32 34
39 36 41 42 37 34 29 19 20 25 20 17 16 15 12 10 9 9 8 8 8 9 8 6 5 4 4 4 5 7 9 11 13 15 16 17 17 19 23 23 23 28 30 32 33 34 35 37 39
Wind_Direction
275 279 282 274 265 264 255 257 257 285 281 280 281 271 272 296 314 283 24 348 97 98 114 114 106 101 100 105 109 112 109 107 102 99 96 91 90 90 90 82 73 64 62 65 71 68 67 72 79
273 274 275 264 258 253 256 251 264 271 289 286 278 275 278 286 327 342 16 71 102 97 110 115 112 107 104 105 106 108 108 104 101 98 95 92 94 97 95 81 70 62 61 65 70 67 66 73 80
270 268 263 257 252 248 249 259 262 269 285 278 284 279 287 302 311 323 348 99 99 95 110 112 115 112 107 106 110 109 102 99 99 95 92 94 97 98 95 85 73 71 67 72 72 71 74 83 85
267 265 264 250 251 244 240 248 286 264 273 275 275 282 290 298 292 302 333 110 101 98 112 113 117 114 110 111 110 109 107 103 98 93 89 92 94 95 91 84 79 76 72 75 69 73 82 90 85
260 262 254 251 247 244 247 248 254 269 271 270 273 269 285 300 306 305 292 152 129 115 111 119 119 117 114 112 112 110 104 101 102 101 101 97 95 92 84 74 70 76 79 76 73 83 86 81 80
258 256 254 252 251 250 247 252 262 266 266 269 273 271 284 314 308 302 269 196 161 143 119 126 124 120 115 111 118 117 110 105 101 100 98 98 97 90 78 62 61 77 81 71 69 74 72 70 60
254 255 256 258 256 252 256 256 258 260 262 263 281 274 279 294 296 292 255 186 166 147 126 133 135 129 119 111 113 113 112 105 100 95 93 95 91 84 69 63 68 59 51 45 33 37 37 34 24
256 256 258 257 257 255 264 261 257 259 258 263 271 268 270 288 285 281 248 201 184 168 142 138 136 136 133 121 107 107 106 99 89 88 87 77 66 55 49 30 16 19 16 16 13 4 348 338 330
260 255 253 255 258 259 261 263 262 266 261 261 262 263 282 282 273 266 249 223 205 192 163 149 147 148 142 130 120 108 97 86 73 76 82 72 32 16 356 351 358 347 333 325 324 323 322 319 317
252 255 255 257 259 259 259 260 260 261 260 259 259 258 265 270 266 254 241 226 214 206 188 173 165 161 151 133 125 124 113 104 93 82 74 56 354 348 338 337 341 335 323 317 312 311 311 310 311
248 227 262 257 261 262 260 259 258 256 258 258 257 250 258 263 258 254 250 235 219 213 211 191 180 180 163 147 119 126 109 94 71 67 53 33 324 326 326 331 328 319 313 314 311 309 306 305 307
253 258 255 255 265 261 260 261 255 256 259 266 263 253 257 259 256 253 248 246 224 213 211 203 191 195 199 165 138 144 124 96 6 3 48 328 310 320 318 316 323 317 310 309 305 310 306 304 303
255 254 258 262 256 261 262 258 257 256 258 259 265 256 259 258 259 258 253 245 237 221 215 214 203 206 201 219 172 166 192 288 333 344 328 309 314 314 314 312 311 313 313 307 311 307 309 311 306
258 259 256 255 261 259 261 260 259 256 258 255 255 256 257 260 260 259 251 250 234 226 223 220 219 221 213 217 232 243 283 309 318 326 331 312 324 319 320 317 316 312 311 309 309 311 310 309 309
257 258 258 255 254 260 262 257 255 257 257 253 254 256 259 257 257 258 253 247 237 232 227 227 228 222 224 236 252 253 281 300 312 314 322 313 311 319 319 318 316 315 312 311 309 309 310 310 308
257 253 253 254 257 255 257 246 261 257 254 253 256 257 256 258 256 257 256 244 240 232 222 224 225 224 228 234 241 261 286 290 303 309 312 309 313 310 319 313 314 316 312 311 311 311 312 312 312
251 251 251 257 254 256 247 252 257 258 253 249 254 257 253 253 251 254 255 240 234 227 221 221 222 221 226 231 255 262 283 291 303 308 313 304 309 308 306 311 310 311 311 313 311 311 312 311 311
241 249 253 254 253 248 252 252 259 256 259 253 253 251 253 253 249 245 245 234 231 226 227 218 224 223 227 242 255 265 284 288 296 304 309 312 311 304 306 305 307 311 310 309 309 311 314 314 313
250 252 252 254 256 251 250 254 253 257 257 255 254 252 251 251 244 235 234 218 204 209 218 226 228 227 229 239 248 264 273 284 291 299 299 300 305 306 306 306 308 307 307 309 312 311 313 315 317
247 247 252 255 251 254 251 254 254 252 252 254 253 252 247 242 226 219 224 223 220 219 218 223 231 231 237 245 256 273 280 287 293 298 302 303 308 310 309 308 308 308 308 310 312 312 316 318 322
243 243 244 252 250 253 254 254 254 251 250 249 253 249 248 240 225 208 205 219 223 223 221 222 224 233 243 253 263 277 287 294 296 300 306 307 309 311 310 310 311 310 311 309 311 310 313 312 313
242 241 245 246 250 247 247 249 252 250 248 246 244 246 242 236 233 221 206 221 220 214 217 225 225 233 243 246 255 264 280 293 295 300 305 311 312 313 314 313 312 312 315 313 307 315 312 315 316
241 244 241 243 249 251 247 249 250 244 244 242 240 241 241 235 229 217 216 220 212 206 216 223 225 227 232 232 244 265 282 298 310 314 318 315 319 316 316 317 317 316 316 318 310 311 314 317 315
240 240 240 240 241 242 244 245 249 241 247 243 238 237 235 234 231 225 214 208 208 209 215 218 221 225 235 251 267 270 288 312 320 322 322 323 327 325 324 322 322 321 318 316 317 318 317 316 317
231 228 231 233 234 239 240 245 247 244 251 242 238 232 232 228 225 222 215 209 206 208 207 203 221 241 243 245 267 284 300 317 325 328 334 335 337 334 336 332 328 325 323 320 322 322 319 321 322
224 224 227 231 228 236 241 239 239 255 244 241 242 232 225 224 223 219 214 210 209 206 207 229 237 239 242 248 256 284 306 329 331 339 343 340 341 339 338 336 334 330 329 326 325 323 324 322 321
220 226 226 239 237 238 236 245 241 238 247 246 250 236 220 218 219 216 207 211 201 212 230 242 234 231 239 244 282 321 333 340 345 348 352 351 350 351 343 338 334 327 321 320 319 319 316 316 316
228 223 224 235 235 233 231 234 236 227 234 240 234 233 234 229 227 205 196 190 206 221 234 216 208 196 199 216 328 350 4 5 357 352 349 351 351 347 345 340 333 325 322 317 315 314 315 314 315
221 221 225 231 240 232 230 229 233 228 232 227 219 227 228 219 192 183 181 187 193 183 167 142 128 125 108 61 35 22 11 2 359 358 354 352 345 340 339 337 330 322 316 314 314 313 314 315 315
215 222 220 224 229 239 230 230 263 223 213 214 222 218 217 206 182 176 169 156 142 134 126 117 106 92 62 41 20 7 356 351 347 345 345 342 343 337 324 322 322 316 314 312 313 314 313 313 313